SKYSAT-A

Last updated on Tue Oct 14 2025 00:02:30 GMT+0000 (Coordinated Universal Time)

1 39418U 13066C 25286.62118352 .00005631 00000+0 33898-3 0 9990 2 39418 97.4204 338.6519 0024034 86.7717 273.6262 15.10962342651224
UTC large
Height (km)
Speed (km/s)
/
Latitude / Longitude
Inclination (degrees)
Orbital Period (minutes)
Azimuth
Elevation
Range (km)
Doppler Factor

Next 0 passes for location: London (51.5072 / 0.1276)

Sorry there are no passes over London.